Regional Weather Roundup
Issued by NWS

Home | Current Version | Previous Version | Text Only | Print | Product List | Glossary On
Versions: 1 2 3 4 5 6 7 8 9 10 11 12 13 14 15 16 17 18 19 20 21 22 23 24 25 26 27 28 29 30 31 32 33 34 35 36 37 38 39 40 41 42 43 44 45 46 47 48 49 50
000
ASUS43 KDTX 100310
RWRMI
MICHIGAN HOURLY REGIONAL WEATHER ROUNDUP
NATIONAL WEATHER SERVICE DETROIT/PONTIAC MI
1000 PM EST TUE FEB 09 2016

NOTE: "FAIR" INDICATES FEW OR NO CLOUDS BELOW 12,000 FEET WITH NO
SIGNIFICANT WEATHER AND/OR OBSTRUCTION TO VISIBILITY.

MIZ047>049-052>055-059>063-066>070-074>076-081>083-100400-
SOUTHEAST LOWER MICHIGAN

CITY           SKY/WX    TMP DP  RH WIND       PRES   REMARKS
ADRIAN         CLOUDY    25  17  72 NW14      29.75S WCI  13
ALMA           FLURRIES  25  19  77 W12       29.73R WCI  14
ANN ARBOR      CLOUDY    25  18  74 W16       29.71S WCI  12
BAD AXE        FLURRIES  24  21  89 NW13G21   29.65R WCI  12
CARO           CLOUDY    23  21  93 W12G17    29.67R WCI  12
DETROIT CITY   LGT SNOW  26  20  77 W12       29.70R WCI  16
DETROIT        LGT SNOW  27  19  74 W13       29.72R WCI  16
FLINT          LGT SNOW  26  18  71 NW15      29.70S WCI  14
GROSSE ILE     LGT SNOW  27  21  80 W9        29.70S WCI  17
HILLSDALE      FLURRIES  22  17  81 W15G22    29.73S WCI   9
HOWELL         FLURRIES  25  20  82 NW13      29.70S WCI  13

CITY           SKY/WX    TMP DP  RH WIND       PRES   REMARKS
JACKSON        CLOUDY    23  16  74 W14       29.73S WCI  11
LAMBERTVILLE   CLOUDY    26  18  71 W8G17     29.75S WCI  17
LANSING        CLOUDY    24  17  74 W14       29.74R WCI  12
LAPEER         FLURRIES  24  21  88 W8        29.67R WCI  15
MASON          CLOUDY    24  18  78 W14G20    29.73R WCI  11
MONROE         LGT SNOW  26  19  77 W14G21    29.73R WCI  14
MT. CLEMENS    LGT SNOW  26  22  87 W15       29.66S FOG     WCI  13
PONTIAC        LGT SNOW  23  19  85 W15       29.67S FOG     WCI  10
PORT HOPE        N/A     26  21  81 NW17G29   29.61S WCI  13
PORT HURON     LGT SNOW  25  23  93 W7        29.65S WCI  17
TRI CITIES     LGT SNOW  25  17  72 W12       29.71R WCI  14
MIDLAND        FLURRIES  24  16  73 W12       29.70R WCI  13
TROY           FLURRIES  26  22  84 W12       29.70S WCI  16
SAGINAW HB     LGT SNOW  27  21  80 W14       29.69S WCI  15
$$
MIZ043>046-050>051-056>058-064>065-071>073-077>080-100400-
SOUTHWEST LOWER MICHIGAN

CITY           SKY/WX    TMP DP  RH WIND       PRES   REMARKS
BATTLE CREEK   CLOUDY    22  15  75 NW10      29.77S WCI  11
BENTON HARBOR  LGT SNOW  22  18  85 NW14G21   29.85S VSB 3/4 WCI   9
BIG RAPIDS     FLURRIES  21  15  78 NW13G18   29.73S WCI   9
COLDWATER      LGT SNOW  23  19  85 W12G17    29.77S WCI  12
FREMONT        CLOUDY    21  14  76 NW17G23   29.79R WCI   6
HOLLAND        LGT SNOW  23  18  81 NW13G20   29.82R WCI  11
GRAND RAPIDS   FLURRIES  23  17  78 NW16G24   29.77S WCI  10
IONIA          FLURRIES  23  17  78 W12       29.74S WCI  12
KALAMAZOO      LGT SNOW  23  17  78 W13       29.79S WCI  11
LUDINGTON      LGT SNOW  19  16  88 NW13G26   29.83S WCI   6
MARSHALL       CLOUDY    23  16  73 W10       29.76R WCI  13
MOUNT PLEASANT FLURRIES  24  15  66 NW8       29.72R WCI  16
MUSKEGON       CLOUDY    22  14  71 NW16G23   29.82S WCI   8
SOUTH HAVEN    LGT SNOW  24  18  80 NW12G20   29.82F WCI  12
$$
MIZ016>042-100400-
NORTHERN LOWER MICHIGAN

CITY           SKY/WX    TMP DP  RH WIND       PRES   REMARKS
ALPENA         LGT SNOW  20  16  84 NW9       29.65S FOG     WCI   9
BEAVER ISLAND  LGT SNOW  17  11  80 N10G23    29.77S WCI   4
BELLAIRE       LGT SNOW  20  17  86 NW6       29.75S VSB 1   WCI  13
CADILLAC       LGT SNOW  19  14  81 NW12G20   29.69S WCI   7
CHARLEVOIX     LGT SNOW  20  16  84 N17G23    29.77S WCI   5
FRANKFORT      LGT SNOW  20  17  84 NW16G24   29.80S WCI   6
GAYLORD        LGT SNOW  17  12  80 VRB6      29.66R WCI   9
GRAYLING       LGT SNOW  19  15  82 NW13G18   29.68S WCI   6
HARBOR SPRINGS LGT SNOW  16  10  75 NW9G23    29.72S WCI   5
HOUGHTON LAKE  FLURRIES  19  13  77 NW14      29.67S WCI   6
MANISTEE       CLOUDY    19  12  73 NW15G25   29.80S WCI   5
OSCODA         CLOUDY    21  16  80 NW14G22   29.65R WCI   8
PELLSTON       LGT SNOW  16  11  80 NW14      29.73R WCI   2
ROGERS CITY    LGT SNOW  23  19  87 N8G16     29.67S WCI  13
TRAVERSE CITY  LGT SNOW  21  15  78 NW20G25   29.75S WCI   6
$$
MIZ007>008-015-100400-
EASTERN UPPER MICHIGAN

CITY           SKY/WX    TMP DP  RH WIND       PRES   REMARKS
KINROSS        CLOUDY    12   9  85 N12       29.71S WCI  -2
MACKINAC ISLAN LGT SNOW  17  13  86 N14G20    29.70S WCI   2
NEWBERRY       LGT SNOW  12   8  86 N13G22    29.76R WCI  -3
S. S. MARIE    FLURRIES  12   3  67 N9        29.72R WCI   0
MUNISING         N/A     16  12  84 N26G37    29.83  WCI  -3
$$
MIZ004>006-011>014-085-100400-
CENTRAL UPPER MICHIGAN

CITY           SKY/WX    TMP DP  RH WIND       PRES   REMARKS
MANISTIQUE     FLURRIES  15   9  76 N16G22    29.79R WCI   0
ESCANABA       MOCLDY    14   7  73 NW13G23   29.85S WCI   0
MENOMINEE      CLOUDY    12   3  67 NW14G20   29.90S WCI  -3
SAWYER-GWINN   LGT SNOW  10   7  85 N22G35    29.82F WCI  -9
$$
MIZ001>003-009>011-084-100400-
WESTERN UPPER MICHIGAN

CITY           SKY/WX    TMP DP  RH WIND       PRES   REMARKS
IRON MOUNTAIN  CLOUDY    10   1  67 NW16      29.87F BLWGSNOWWCI  -7
HOUGHTON       CLOUDY     7   2  80 N13G21    29.95S HAZE    WCI  -9
COPPER HARBOR    N/A     14  10  84 NE22G31   29.96F WCI  -4
IRONWOOD       CLOUDY     9   5  85 N12       29.97S WCI  -6
$$

ABBREVIATIONS USED IN REMARKS
   TC - TEMPERATURE IN CELSIUS
  WCI - WIND CHILL INDEX
   HX - HEAT INDEX
  VSB - VISIBILITY




USA.gov is the U.S. government's official web portal to all federal, state and local government web resources and services.